SCP
0 0 0 0 0 0 0 0 0 0 0 0 0 0 0 0 0 0 0 1 1 1 1 1 1 1 1 1 1 1 1 1 1 1 0 0 0 0 0 1 0 0 0 0
0 0 0 0 0 0 0 0 0 0 0 0 0 0 0 0 0 0 0 1 1 1 1 1 1 1 1 1 1 1 1 1 1 1 1 0 0 0 0 1 1 1 0 0
0 0 0 0 0 0 0 0 0 0 0 0 0 0 0 0 0 0 0 0 1 1 1 1 1 1 1 1 1 1 1 1 1 1 1 0 1 1 1 1 1 1 1 0
0 0 0 0 0 0 0 0 0 0 0 0 0 0 0 0 0 0 0 0 1 1 1 1 1 1 1 1 1 1 1 1 1 1 1 1 1 1 1 1 1 1 1 1
0 0 0 0 0 0 0 0 0 0 0 0 0 0 0 0 0 0 0 0 1 1 1 1 1 1 1 1 1 1 1 1 1 1 1 1 1 1 1 1 1 1 1 1
0 0 0 0 0 0 0 0 0 0 0 0 0 0 0 0 0 0 0 0 0 1 1 1 1 1 1 1 1 1 1 1 1 1 1 1 1 1 1 1 1 1 1 1
0 0 0 0 0 0 0 0 0 0 0 0 0 0 0 0 0 0 0 0 0 1 1 1 1 1 1 1 1 1 1 1 1 1 1 1 1 1 1 1 1 1 1 1
0 0 0 0 0 0 0 0 0 0 0 0 0 0 0 0 0 0 0 0 0 1 1 1 1 1 1 1 1 1 1 1 1 1 1 1 1 1 1 1 1 1 1 1
0 0 0 0 0 0 0 0 0 0 0 0 0 0 0 0 0 0 0 0 0 1 1 1 1 1 1 1 1 1 1 1 1 1 1 1 1 1 1 1 1 1 1 1
0 0 0 0 0 0 0 0 0 0 0 0 0 0 0 0 0 0 0 0 1 1 1 1 1 1 1 1 1 1 1 1 1 1 1 1 1 1 1 1 1 1 1 1
0 0 0 0 0 0 0 0 0 0 0 0 0 0 0 0 0 0 0 1 1 1 1 1 1 1 1 1 1 1 2 2 1 1 1 1 1 1 1 1 1 1 1 1
0 0 0 0 0 0 0 0 0 0 0 0 0 0 0 0 0 0 1 1 1 1 1 1 1 1 1 1 1 1 2 2 1 1 1 1 1 1 1 1 1 1 1 1
0 0 0 0 0 0 0 0 0 0 0 0 0 0 0 0 0 0 1 1 1 1 1 1 1 1 1 1 1 1 2 2 2 2 2 2 1 1 1 1 1 1 1 1
0 0 0 0 0 0 0 0 0 0 0 0 0 0 0 0 0 0 1 1 1 1 1 1 1 2 2 2 2 2 2 2 2 2 2 2 2 2 1 1 1 1 1 1
0 0 0 0 0 0 0 0 0 0 0 0 0 0 0 0 0 1 1 1 1 1 1 1 2 2 2 2 2 2 2 2 2 2 2 2 2 2 1 1 1 1 1 1
0 0 0 0 0 0 0 0 0 0 0 0 0 0 0 1 1 1 1 1 1 1 1 1 2 2 3 3 2 2 2 2 2 2 2 2 2 2 1 1 1 1 1 1
0 0 0 0 0 0 0 0 0 0 0 0 0 0 1 1 1 1 1 1 1 1 2 2 2 3 3 3 3 3 3 2 2 2 2 2 2 2 2 1 1 1 2 2
0 0 0 0 0 0 0 0 0 0 0 0 0 1 1 1 1 1 2 2 2 2 2 2 2 3 3 3 3 3 3 3 2 2 2 2 2 2 2 2 2 2 2 2
0 0 0 0 0 0 0 0 0 0 0 0 1 1 1 1 1 1 1 2 2 2 2 2 3 3 3 3 3 3 3 3 3 3 3 3 3 3 2 2 2 2 2 2
0 0 0 0 0 0 0 0 0 0 0 1 1 1 1 1 1 1 1 2 2 2 2 2 3 3 3 3 3 3 3 3 3 3 3 3 3 3 3 3 3 3 3 3
0 0 0 0 0 0 0 0 0 1 1 1 1 1 2 2 2 2 2 2 2 2 2 2 3 3 3 4 4 4 3 3 3 3 3 3 3 3 3 3 3 3 3 2
0 0 0 0 0 0 1 1 1 1 1 1 1 2 2 2 2 2 2 2 2 2 2 2 3 3 4 4 4 4 4 3 3 3 3 3 3 3 3 3 3 3 2 2
0 0 0 0 0 1 1 1 1 1 1 1 1 1 2 2 2 2 2 2 2 2 2 2 3 3 4 4 4 4 4 4 4 3 3 3 3 2 3 3 3 2 2 2
0 0 0 1 1 1 1 1 1 1 1 1 1 1 1 1 1 2 2 2 2 2 2 3 3 3 3 3 3 4 4 4 3 3 3 2 2 2 2 2 2 2 1 1
0 0 0 1 1 1 1 0 0 0 1 1 1 1 1 1 1 2 2 2 2 2 3 3 3 3 3 3 3 3 3 3 3 3 2 2 2 2 2 2 1 1 1 1
0 0 0 1 1 1 1 0 0 0 0 1 1 1 1 1 1 2 2 2 2 3 3 3 3 3 3 3 3 3 3 3 3 2 2 2 1 1 1 1 1 1 0 0
Wind_Speed
13 12 8 6 7 5 4 5 2 5 7 5 7 10 10 10 11 11 11 11 11 11 11 10 9 9 8 7 6 4 3 3 2 1 1 2 2 2 1 2 3 2 1 1
12 12 10 8 8 7 7 4 2 3 5 3 5 4 7 9 9 10 11 11 12 12 12 11 10 9 9 7 6 5 4 4 3 2 2 1 2 1 2 2 3 2 1 1
15 10 9 9 9 7 7 5 4 3 3 4 5 4 4 9 9 10 11 12 13 14 13 12 11 10 9 9 7 6 5 4 3 3 2 2 2 0 1 2 2 2 1 1
14 11 10 10 9 8 8 5 4 4 5 2 2 3 6 10 10 9 10 11 13 14 14 13 12 10 10 9 8 6 5 4 3 3 2 2 2 2 2 2 2 2 2 1
13 12 11 11 9 9 7 7 6 7 7 6 6 3 4 7 9 10 9 10 12 14 14 13 13 11 10 10 10 8 6 5 3 2 2 1 1 1 2 2 2 2 2 2
14 11 11 11 10 10 7 7 8 8 7 8 6 3 5 6 10 11 10 11 12 13 13 12 12 11 10 10 10 10 8 6 5 4 3 2 2 1 2 2 2 2 2 2
16 15 12 11 12 11 9 9 6 5 5 5 6 3 5 7 8 12 13 12 13 14 14 13 12 12 11 11 10 10 9 7 6 5 3 3 3 2 2 1 2 1 1 2
16 15 15 13 13 11 11 11 8 5 4 4 5 4 3 7 6 9 13 13 13 14 13 13 12 11 11 11 10 10 10 8 7 5 4 3 3 2 2 2 1 1 1 2
11 12 13 14 13 14 12 11 10 8 8 5 3 4 3 6 7 9 12 11 13 13 13 13 13 11 11 11 10 10 10 8 7 7 5 4 3 2 1 2 2 1 1 2
13 10 12 12 12 14 13 10 7 6 5 7 5 3 1 4 6 9 11 11 12 12 12 12 13 13 11 10 9 8 9 8 7 6 6 6 5 4 2 1 2 2 1 2
14 11 11 11 13 13 13 13 9 7 7 6 3 1 2 5 5 5 9 10 10 11 12 11 11 12 11 11 10 9 8 8 7 6 5 4 5 4 4 2 2 1 1 1
10 10 11 12 12 13 14 14 12 8 7 7 4 2 4 5 5 7 10 10 10 11 11 11 12 11 10 11 11 10 9 8 7 6 5 5 4 4 3 3 2 2 2 1
5 7 10 11 11 12 12 13 13 12 8 8 7 3 4 2 2 5 9 9 8 9 9 9 10 10 9 9 9 10 9 9 8 7 6 5 5 4 3 3 3 2 2 2
5 8 11 12 8 8 11 13 13 13 9 7 5 4 4 2 3 4 7 8 8 8 7 7 7 8 8 8 8 8 8 9 9 8 7 6 5 4 4 3 3 3 2 2
6 9 12 14 13 10 11 12 14 14 11 8 5 3 2 1 2 5 6 7 7 6 7 6 7 7 6 7 7 8 8 7 8 8 8 7 6 5 4 4 3 2 2 3
5 8 10 12 13 13 13 12 13 12 11 10 8 4 3 3 3 4 5 5 5 4 5 5 6 7 6 6 6 7 7 7 6 7 7 6 6 5 5 4 4 3 2 2
6 6 9 11 12 14 13 11 11 11 9 8 6 3 2 2 5 5 5 5 3 3 3 3 4 5 5 6 6 6 7 7 7 6 6 7 6 6 5 5 4 3 3 3
6 6 7 10 11 14 8 6 9 10 6 2 2 2 1 4 6 6 6 4 3 3 2 1 3 4 6 7 7 6 6 7 7 7 7 7 7 6 5 5 4 4 3 3
7 6 8 9 11 11 9 7 7 6 2 5 3 3 3 3 4 5 5 5 4 3 3 1 1 3 4 5 6 6 6 6 7 7 6 6 6 6 6 5 5 4 3 3
10 7 8 9 11 10 4 4 6 7 3 4 5 5 5 3 0 2 5 4 3 3 2 2 1 2 3 4 5 6 6 6 6 6 6 6 6 6 5 5 4 4 4 3
10 10 11 11 10 7 4 5 5 6 0 5 6 6 6 5 3 3 4 4 3 3 3 2 2 1 3 4 5 5 5 5 4 5 5 6 5 5 5 5 4 4 4 4
9 9 10 10 10 6 5 4 3 3 5 5 6 6 6 5 4 4 4 4 3 3 3 3 2 2 2 4 5 5 4 3 4 4 5 5 5 5 5 5 5 5 4 4
5 3 3 2 1 3 5 4 5 5 5 5 5 5 5 5 4 4 3 3 3 3 2 2 2 2 2 3 4 4 3 4 4 4 4 4 4 3 4 5 5 4 4 4
3 1 3 2 1 2 4 4 4 4 5 5 5 4 4 4 4 3 3 2 2 2 1 1 1 1 2 2 3 3 4 5 5 5 4 4 4 4 4 3 3 4 4 4
5 4 4 3 2 3 2 4 5 5 5 6 6 5 4 4 4 3 2 2 2 1 1 1 1 1 2 2 2 3 4 4 5 4 4 4 4 4 3 3 1 2 1 2
4 4 4 3 4 4 4 4 4 4 3 4 4 5 4 4 4 4 3 2 1 0 1 1 1 1 2 2 2 3 3 4 4 4 4 4 4 4 4 4 2 4 2 3
Wind_Direction
237 241 245 232 238 235 253 263 178 151 147 160 148 147 162 170 174 166 165 163 159 156 153 151 153 150 147 142 140 140 143 138 145 143 161 168 169 173 157 150 131 131 152 139
238 239 244 249 237 241 239 248 208 167 147 179 130 132 167 178 184 169 164 165 160 155 152 153 156 154 151 147 146 148 150 149 153 159 174 176 169 180 155 126 118 136 154 185
239 239 237 240 246 250 253 233 225 218 193 194 166 155 208 191 181 174 170 168 162 160 157 158 162 160 157 152 154 155 151 151 161 168 175 176 146 126 95 124 132 155 161 190
243 243 245 245 244 252 266 265 252 252 255 250 225 155 214 203 180 180 175 169 162 160 157 159 162 163 161 155 153 145 144 145 151 163 179 174 157 158 158 152 144 144 142 166
240 236 239 247 246 248 258 271 267 268 261 249 224 175 207 209 180 174 168 174 164 159 158 161 163 163 161 158 155 150 144 145 149 162 168 171 157 161 151 139 133 140 144 147
248 242 237 242 245 248 254 254 261 268 271 266 257 208 168 188 188 170 172 180 162 156 156 158 161 158 160 159 156 154 149 153 157 166 171 165 176 161 124 129 137 167 156 142
239 240 234 239 243 233 236 246 252 256 261 273 308 290 149 181 184 164 163 167 158 154 154 159 166 158 161 161 159 155 152 160 166 172 175 167 181 172 157 169 163 170 132 126
227 228 221 222 234 240 233 247 252 262 277 294 331 301 160 145 136 145 150 156 154 155 156 160 159 159 163 163 159 156 156 162 169 172 169 164 169 180 180 178 168 137 130 117
241 232 223 218 225 241 242 240 255 258 249 253 227 222 176 135 139 144 140 145 153 155 156 159 161 165 165 163 159 159 157 163 170 171 165 161 162 164 157 144 167 144 118 133
256 257 237 218 217 230 245 254 264 264 277 274 220 195 144 145 173 156 146 149 151 156 163 167 164 166 163 160 155 155 157 162 167 169 172 166 167 168 169 150 120 111 107 92
246 257 247 226 219 229 225 240 252 274 276 277 283 320 131 187 184 170 149 147 154 157 158 162 162 160 158 158 158 157 157 161 164 165 162 155 158 165 163 156 148 137 129 130
240 255 255 238 234 235 243 242 239 242 261 277 280 246 220 195 192 163 144 142 155 153 156 157 157 156 159 163 163 161 161 164 164 164 158 153 152 155 160 150 141 143 142 140
257 253 253 240 228 221 237 247 254 251 245 251 260 173 187 158 177 142 128 129 135 141 145 149 152 155 159 160 159 161 166 166 165 162 155 153 155 154 153 143 144 141 137 128
274 252 254 252 243 229 232 241 251 258 258 257 251 182 178 180 141 119 120 134 138 135 137 147 146 150 154 154 155 158 163 165 164 162 160 159 158 156 147 142 138 138 140 138
260 248 253 265 272 258 246 243 242 248 259 260 259 213 203 205 122 107 119 133 128 133 144 157 153 144 146 151 159 161 163 163 163 163 164 162 160 153 149 146 142 138 141 136
249 267 262 260 266 268 257 246 252 250 251 250 252 256 202 178 119 100 96 102 118 142 152 149 147 147 152 156 164 163 161 159 156 162 161 154 154 155 155 155 153 142 133 119
241 250 260 257 255 260 255 255 259 259 256 254 255 265 197 141 101 103 95 95 99 99 126 140 154 154 161 164 165 166 165 162 163 162 161 159 163 163 165 165 153 145 139 125
251 264 258 257 255 251 255 274 274 265 261 306 301 314 7 83 92 90 84 74 61 52 46 134 164 164 170 164 161 161 166 166 167 169 167 167 169 166 162 161 158 154 150 141
229 242 253 257 250 246 249 250 259 258 291 358 359 5 13 58 103 100 75 66 56 47 27 24 159 165 160 159 158 159 168 169 171 172 169 167 168 167 169 169 165 158 152 144
211 212 242 252 258 253 256 269 268 253 220 7 1 14 17 10 303 79 48 51 43 37 35 32 51 130 148 155 152 161 170 173 178 175 169 164 167 168 169 165 160 156 154 159
208 211 229 247 252 257 322 321 291 254 346 19 16 17 16 22 24 40 39 41 36 36 33 48 64 85 140 146 148 162 170 180 175 163 160 161 165 164 161 156 158 158 160 160
214 219 222 239 247 246 350 334 332 13 34 25 23 29 29 30 35 37 42 31 25 27 30 38 51 65 107 131 145 160 168 164 150 155 159 159 160 172 163 158 162 163 165 167
231 258 260 259 265 51 18 34 32 19 22 22 23 24 19 8 12 32 34 20 15 22 27 38 54 67 95 116 140 155 143 134 140 147 152 153 160 159 155 168 172 170 175 192
213 250 264 277 123 32 8 27 18 18 10 8 12 11 4 352 347 359 3 354 348 3 28 46 93 108 108 117 138 144 143 137 144 156 156 159 164 167 160 169 178 186 194 200
333 326 283 255 295 320 353 352 350 9 15 9 350 350 345 344 334 326 325 324 315 348 63 74 111 123 126 122 133 137 136 146 159 163 161 167 173 172 158 158 143 186 181 215
330 331 309 314 348 329 336 351 347 336 347 349 343 340 335 329 317 316 316 314 316 84 102 103 104 116 128 132 132 129 134 156 166 173 174 180 183 169 170 169 144 58 77 98